Todos
San Ysidro Ranch Airport (Catarina, TX) TS40 Condiciones meteorológicas
There is no TAF data available at TS40 or any nearby airports.
There is no METAR data available at TS40. Showing METAR data for KCZT (16 mi NO).
Historial METAR CZT reciente (no hay datos para TS40)
| Date | Time (CDT) | Flight Rules | Wind Dir. | Speed | Type | Height AGL (ft) | Visibility | Temp (°C) | Temp (°F) | Dew Point (°C) | Dew Point (°F) | Rel. Humid. | Pressure | Density Altitude | Remarks |
|---|---|---|---|---|---|---|---|---|---|---|---|---|---|---|---|
| 05-sep | 03:55PM | VFR | 90° | 7 kt | 10 miles | 36° | 96° | 22° | 71° | 45% | 29.82 in Hg | 3.218 ft | |||
| 05-sep | 03:15PM | VFR | 100° | 6 kt | 10 miles | 37° | 98° | 23° | 73° | 45% | 29.85 in Hg | 3.308 ft | |||
| 05-sep | 02:55PM | VFR | 120° | 3 kt | 10 miles | 37° | 98° | 23° | 73° | 45% | 29.86 in Hg | 3.298 ft | |||
| 05-sep | 02:15PM | VFR | 140° | 5 kt | 10 miles | 36° | 96° | 23° | 73° | 47% | 29.89 in Hg | 3.148 ft | |||
| 05-sep | 01:55PM | VFR | 70° | 7 kt | 10 miles | 36° | 96° | 23° | 73° | 47% | 29.90 in Hg | 3.138 ft | |||
| 05-sep | 01:35PM | VFR | 150° | 4 kt | 10 miles | 34° | 93° | 23° | 73° | 53% | 29.91 in Hg | 2.888 ft | |||
| 05-sep | 01:15PM | VFR | 120° | 6 kt | 10 miles | 34° | 93° | 23° | 73° | 53% | 29.92 in Hg | 2.878 ft | |||
| 05-sep | 12:55PM | VFR | 100° | 5 kt | 10 miles |
32° | 89° | 23° | 73° | 59% | 29.94 in Hg | 2.618 ft | |||
| 05-sep | 12:15PM | VFR | 110° | 8 kt | 7 miles | 31° | 87° | 23° | 73° | 63% | 29.95 in Hg | 2.488 ft | |||
| 05-sep | 11:55AM | VFR | 130° | 3 kt | 7 miles |
31° | 87° | 23° | 73° | 63% | 29.95 in Hg | 2.488 ft | |||
| 05-sep | 11:15AM | VFR | 120° | 6 kt | 10 miles | 29° | 84° | 25° | 77° | 79% | 29.96 in Hg | 2.238 ft | |||
| 05-sep | 10:55AM | VFR | 140° | 3 kt | 10 miles | 29° | 84° | 26° | 78° | 84% | 29.95 in Hg | 2.248 ft | |||
| 05-sep | 10:15AM | VFR | 100° | 6 kt | 10 miles | 28° | 82° | 26° | 78° | 89% | 29.96 in Hg | 2.118 ft | |||
| 05-sep | 09:55AM | VFR | 120° | 7 kt | 10 miles | 28° | 82° | 26° | 78° | 89% | 29.95 in Hg | 2.128 ft | |||
| 05-sep | 09:15AM | VFR | 110° | 5 kt | 10 miles | 27° | 80° | 27° | 80° | 100% | 29.95 in Hg | 2.008 ft | |||
| 05-sep | 08:55AM | VFR | 90° | 5 kt | 10 miles | 27° | 80° | 27° | 80° | 100% | 29.94 in Hg | 2.018 ft | |||
| 05-sep | 08:15AM | VFR | 110° | 3 kt | 10 miles | 26° | 78° | 26° | 78° | 100% | 29.94 in Hg | 1.898 ft | |||
| 05-sep | 07:55AM | VFR | 120° | 3 kt | 10 miles | 26° | 78° | 26° | 78° | 100% | 29.93 in Hg | 1.908 ft | |||
| 05-sep | 07:15AM | VFR | Calm | 10 miles | 25° | 77° | 25° | 77° | 100% | 29.91 in Hg | 1.808 ft | ||||
| 05-sep | 06:55AM | VFR | Calm | 10 miles | 25° | 77° | 25° | 77° | 100% | 29.91 in Hg | 1.808 ft | ||||
| 05-sep | 06:15AM | VFR | Calm | 10 miles | 25° | 77° | 25° | 77° | 100% | 29.90 in Hg | 1.818 ft | ||||
| 05-sep | 05:55AM | VFR | 90° | 3 kt | 10 miles | 25° | 77° | 25° | 77° | 100% | 29.89 in Hg | 1.828 ft | |||
| 05-sep | 05:35AM | VFR | 100° | 3 kt | 10 miles | 26° | 78° | 26° | 78° | 100% | 29.89 in Hg | 1.948 ft | |||
| 05-sep | 05:15AM | VFR | Calm | 10 miles | 26° | 78° | 25° | 77° | 94% | 29.89 in Hg | 1.948 ft |
Entrar
| Tu navegador no está contemplado. eleva la categoría de tu navegador |
